Location: Aranbee
(34.0885°N, 118.2342°W)
Time: 18:01:48
(UTC+00:00)

Transit 4A - Visible Passes

Search period start: 04 December 2020 00:00
Search period end: 14 December 2020 00:00
Orbit: 862 x 982 km, 66.8° (Epoch: 03 December)

Date Brightness Start Highest point End Pass type
(mag) Time Alt. Az. Time Alt. Az. Time Alt. Az.
04 Dec 8.8 13:40:57 10° S 13:47:03 56° ESE 13:53:17 10° NE visible
05 Dec 8.1 13:50:01 10° SSW 13:56:18 85° ESE 14:02:44 10° NNE visible
06 Dec 10.6 12:16:01 10° SE 12:19:56 17° ESE 12:23:53 10° ENE visible
06 Dec 8.0 13:59:23 10° SW 14:05:38 65° WNW 14:12:02 10° NNE visible
07 Dec 9.9 12:23:49 10° SSE 12:28:59 27° ESE 12:34:14 10° NE visible
07 Dec 8.3 14:09:05 10° SW 14:15:03 44° WNW 14:21:10 10° NNE visible
08 Dec 9.1 12:32:15 10° S 12:38:07 42° ESE 12:44:05 10° NE visible
09 Dec 8.3 12:41:06 10° SSW 12:47:18 65° ESE 12:53:40 10° NNE visible
10 Dec 10.7 11:08:39 10° SE 11:11:06 12° E 11:13:35 10° ENE visible
10 Dec 7.9 12:50:16 10° SSW 12:56:35 84° WNW 13:03:03 10° NNE visible
11 Dec 10.1 11:16:55 14° SE 11:20:07 21° ESE 11:24:39 10° ENE visible
11 Dec 8.0 13:00:49 15° SW 13:05:57 56° WNW 13:12:17 10° NNE visible
12 Dec 9.5 11:29:39 32° E 11:29:39 32° E 11:34:46 10° NE visible
12 Dec 8.4 13:13:20 30° W 13:15:25 38° WNW 13:21:21 10° N visible
13 Dec 9.3 11:40:46 34° ENE 11:40:46 34° ENE 11:44:30 10° NE visible
13 Dec 8.8 13:24:24 26° WNW 13:24:58 26° NW 13:30:15 10° N visible
